Time,TemperatureF,DewpointF,PressureIn,WindDirection,WindDirectionDegrees,WindSpeedMPH,WindSpeedGustMPH,Humidity,HourlyPrecipIn,Conditions,Clouds,dailyrainin,SoftwareType,DateUTC
2013-11-21 00:14:00,75.1,72.0,29.94,ESE,122,0.0,1.0,91,0.00,,,0.00,weatherlink.com 1.10,2013-11-21 04:14:00,
2013-11-21 00:29:00,75.4,73.0,29.94,SE,145,0.0,2.0,91,0.04,,,0.04,weatherlink.com 1.10,2013-11-21 04:29:00,
2013-11-21 00:44:00,75.6,73.0,29.93,SE,131,0.0,2.0,92,0.05,,,0.05,weatherlink.com 1.10,2013-11-21 04:44:00,
2013-11-21 00:59:00,75.7,74.0,29.92,ESE,104,1.0,3.0,93,0.06,,,0.06,weatherlink.com 1.10,2013-11-21 04:59:00,
2013-11-21 01:14:00,75.4,73.0,29.93,NE,38,0.0,1.0,93,0.06,,,0.06,weatherlink.com 1.10,2013-11-21 05:14:00,
2013-11-21 01:29:00,75.4,73.0,29.92,ESE,117,1.0,2.0,93,0.02,,,0.06,weatherlink.com 1.10,2013-11-21 05:29:00,
2013-11-21 01:44:00,75.1,73.0,29.92,ESE,120,1.0,5.0,93,0.03,,,0.08,weatherlink.com 1.10,2013-11-21 05:44:00,
2013-11-21 01:59:00,75.2,73.0,29.91,SSE,148,0.0,1.0,93,0.02,,,0.08,weatherlink.com 1.10,2013-11-21 05:59:00,
2013-11-21 02:14:00,75.1,73.0,29.91,SSE,163,0.0,1.0,93,0.02,,,0.08,weatherlink.com 1.10,2013-11-21 06:14:00,
2013-11-21 02:29:00,74.9,73.0,29.91,SE,145,0.0,1.0,93,0.02,,,0.08,weatherlink.com 1.10,2013-11-21 06:29:00,
2013-11-21 02:44:00,74.6,73.0,29.90,SE,145,0.0,0.0,94,0.00,,,0.08,weatherlink.com 1.10,2013-11-21 06:44:00,
2013-11-21 02:59:00,74.6,73.0,29.90,West,267,2.0,2.0,94,0.00,,,0.08,weatherlink.com 1.10,2013-11-21 06:59:00,
2013-11-21 03:14:00,74.6,73.0,29.90,WSW,257,1.0,4.0,95,0.01,,,0.09,weatherlink.com 1.10,2013-11-21 07:14:00,
2013-11-21 03:29:00,74.4,73.0,29.90,WSW,252,2.0,3.0,95,0.01,,,0.09,weatherlink.com 1.10,2013-11-21 07:29:00,
2013-11-21 03:44:00,74.6,73.0,29.90,West,259,0.0,1.0,95,0.01,,,0.09,weatherlink.com 1.10,2013-11-21 07:44:00,
2013-11-21 03:59:00,74.6,73.0,29.90,WSW,255,1.0,2.0,95,0.02,,,0.10,weatherlink.com 1.10,2013-11-21 07:59:00,
2013-11-21 04:14:00,74.8,74.0,29.89,WSW,257,0.0,1.0,96,0.01,,,0.10,weatherlink.com 1.10,2013-11-21 08:14:00,
2013-11-21 04:29:00,75.0,74.0,29.90,SSE,150,0.0,1.0,95,0.01,,,0.10,weatherlink.com 1.10,2013-11-21 08:29:00,
2013-11-21 04:44:00,74.7,74.0,29.90,SSE,150,0.0,1.0,96,0.01,,,0.10,weatherlink.com 1.10,2013-11-21 08:44:00,
2013-11-21 04:59:00,74.7,74.0,29.90,SSE,150,0.0,1.0,96,0.00,,,0.10,weatherlink.com 1.10,2013-11-21 08:59:00,
2013-11-21 05:14:00,74.8,74.0,29.91,SE,132,0.0,2.0,96,0.00,,,0.10,weatherlink.com 1.10,2013-11-21 09:14:00,
2013-11-21 05:29:00,74.5,73.0,29.91,SE,136,0.0,6.0,96,0.03,,,0.13,weatherlink.com 1.10,2013-11-21 09:29:00,
2013-11-21 05:45:00,74.5,73.0,29.91,SE,142,0.0,2.0,96,0.03,,,0.13,weatherlink.com 1.10,2013-11-21 09:45:00,
2013-11-21 06:00:00,74.2,73.0,29.92,SE,135,1.0,2.0,96,0.03,,,0.13,weatherlink.com 1.10,2013-11-21 10:00:00,
2013-11-21 06:15:00,74.3,73.0,29.93,SE,135,0.0,1.0,96,0.03,,,0.13,weatherlink.com 1.10,2013-11-21 10:15:00,
2013-11-21 06:30:00,74.4,73.0,29.93,SE,136,0.0,1.0,96,0.00,,,0.13,weatherlink.com 1.10,2013-11-21 10:30:00,
2013-11-21 06:45:00,74.4,73.0,29.93,SE,135,0.0,0.0,96,0.00,,,0.13,weatherlink.com 1.10,2013-11-21 10:45:00,
2013-11-21 07:00:00,74.6,73.0,29.94,ENE,58,5.0,8.0,95,0.00,,,0.13,weatherlink.com 1.10,2013-11-21 11:00:00,
2013-11-21 07:15:00,74.4,73.0,29.94,SSE,148,1.0,5.0,95,0.06,,,0.19,weatherlink.com 1.10,2013-11-21 11:15:00,
2013-11-21 07:30:00,75.0,74.0,29.94,ESE,122,0.0,3.0,96,0.09,,,0.22,weatherlink.com 1.10,2013-11-21 11:30:00,
2013-11-21 07:45:00,76.4,75.0,29.95,SSE,155,1.0,2.0,96,0.09,,,0.22,weatherlink.com 1.10,2013-11-21 11:45:00,
2013-11-21 08:00:00,78.1,76.0,29.95,East,88,1.0,2.0,94,0.08,,,0.22,weatherlink.com 1.10,2013-11-21 12:00:00,
2013-11-21 08:15:00,78.1,76.0,29.96,East,94,1.0,2.0,92,0.02,,,0.22,weatherlink.com 1.10,2013-11-21 12:15:00,
2013-11-21 08:30:00,78.7,76.0,29.96,East,80,0.0,4.0,90,0.00,,,0.22,weatherlink.com 1.10,2013-11-21 12:30:00,
2013-11-21 08:45:00,78.9,76.0,29.96,East,82,3.0,6.0,89,0.00,,,0.22,weatherlink.com 1.10,2013-11-21 12:45:00,
2013-11-21 09:00:00,79.2,76.0,29.96,NE,47,3.0,7.0,89,0.00,,,0.22,weatherlink.com 1.10,2013-11-21 13:00:00,
2013-11-21 09:15:00,79.5,75.0,29.97,East,84,5.0,9.0,85,0.00,,,0.22,weatherlink.com 1.10,2013-11-21 13:15:00,
2013-11-21 09:30:00,79.5,75.0,29.97,ESE,103,3.0,7.0,85,0.00,,,0.22,weatherlink.com 1.10,2013-11-21 13:30:00,
2013-11-21 09:45:00,79.4,75.0,29.97,East,94,3.0,6.0,86,0.00,,,0.22,weatherlink.com 1.10,2013-11-21 13:45:00,
2013-11-21 10:00:00,80.2,75.0,29.97,East,86,3.0,7.0,84,0.00,,,0.22,weatherlink.com 1.10,2013-11-21 14:00:00,
2013-11-21 10:15:00,81.1,76.0,29.96,East,86,4.0,7.0,83,0.00,,,0.22,weatherlink.com 1.10,2013-11-21 14:15:00,
2013-11-21 10:30:00,81.1,75.0,29.96,ENE,67,5.0,7.0,82,0.00,,,0.22,weatherlink.com 1.10,2013-11-21 14:30:00,
2013-11-21 10:45:00,81.0,76.0,29.96,ENE,73,2.0,8.0,85,0.00,,,0.22,weatherlink.com 1.10,2013-11-21 14:45:00,
2013-11-21 11:00:00,81.8,75.0,29.96,ESE,110,3.0,12.0,79,0.00,,,0.22,weatherlink.com 1.10,2013-11-21 15:00:00,
2013-11-21 11:15:00,82.6,75.0,29.95,NE,43,3.0,8.0,78,0.00,,,0.22,weatherlink.com 1.10,2013-11-21 15:15:00,
2013-11-21 11:30:00,82.4,75.0,29.95,East,86,5.0,8.0,79,0.00,,,0.22,weatherlink.com 1.10,2013-11-21 15:30:00,
2013-11-21 11:45:00,80.6,76.0,29.95,NE,49,2.0,11.0,85,0.01,,,0.23,weatherlink.com 1.10,2013-11-21 15:45:00,
2013-11-21 12:00:00,80.4,76.0,29.94,East,80,5.0,8.0,85,0.02,,,0.24,weatherlink.com 1.10,2013-11-21 16:00:00,
2013-11-21 12:15:00,81.4,75.0,29.93,ESE,107,2.0,10.0,82,0.02,,,0.24,weatherlink.com 1.10,2013-11-21 16:15:00,
2013-11-21 12:30:00,81.1,76.0,29.93,NE,56,4.0,11.0,83,0.02,,,0.24,weatherlink.com 1.10,2013-11-21 16:30:00,
2013-11-21 12:45:00,80.9,75.0,29.93,ESE,105,4.0,10.0,83,0.01,,,0.24,weatherlink.com 1.10,2013-11-21 16:45:00,
2013-11-21 13:00:00,79.6,75.0,29.93,ESE,105,6.0,12.0,85,0.00,,,0.24,weatherlink.com 1.10,2013-11-21 17:00:00,
2013-11-21 13:15:00,78.1,75.0,29.92,ESE,115,0.0,5.0,89,0.02,,,0.26,weatherlink.com 1.10,2013-11-21 17:15:00,
2013-11-21 13:30:00,78.7,76.0,29.91,ESE,107,0.0,3.0,91,0.02,,,0.26,weatherlink.com 1.10,2013-11-21 17:30:00,
2013-11-21 13:45:00,79.0,76.0,29.90,ENE,66,2.0,4.0,89,0.02,,,0.26,weatherlink.com 1.10,2013-11-21 17:45:00,
2013-11-21 14:00:00,80.0,76.0,29.90,East,82,0.0,5.0,87,0.02,,,0.26,weatherlink.com 1.10,2013-11-21 18:00:00,
2013-11-21 14:15:00,78.8,75.0,29.90,ESE,115,1.0,6.0,87,0.09,,,0.35,weatherlink.com 1.10,2013-11-21 18:15:00,
2013-11-21 14:30:00,78.5,76.0,29.90,East,94,3.0,4.0,91,0.10,,,0.36,weatherlink.com 1.10,2013-11-21 18:30:00,
2013-11-21 14:45:00,79.4,76.0,29.89,ENE,70,2.0,7.0,89,0.10,,,0.36,weatherlink.com 1.10,2013-11-21 18:45:00,
2013-11-21 15:00:00,79.8,75.0,29.90,East,90,0.0,9.0,86,0.10,,,0.36,weatherlink.com 1.10,2013-11-21 19:00:00,
2013-11-21 15:15:00,79.8,75.0,29.90,East,84,3.0,10.0,86,0.00,,,0.36,weatherlink.com 1.10,2013-11-21 19:15:00,
2013-11-21 15:30:00,79.6,76.0,29.89,ENE,66,2.0,7.0,87,0.00,,,0.36,weatherlink.com 1.10,2013-11-21 19:30:00,
2013-11-21 15:45:00,80.7,76.0,29.89,North,6,4.0,6.0,85,0.00,,,0.36,weatherlink.com 1.10,2013-11-21 19:45:00,
2013-11-21 16:00:00,80.6,76.0,29.89,NNE,30,3.0,6.0,85,0.00,,,0.36,weatherlink.com 1.10,2013-11-21 20:00:00,
2013-11-21 16:15:00,80.2,75.0,29.89,ENE,74,4.0,10.0,85,0.00,,,0.36,weatherlink.com 1.10,2013-11-21 20:15:00,
2013-11-21 16:31:00,79.2,75.0,29.89,East,93,1.0,6.0,86,0.00,,,0.36,weatherlink.com 1.10,2013-11-21 20:31:00,
2013-11-21 16:45:00,78.9,75.0,29.89,SE,133,0.0,4.0,87,0.00,,,0.36,weatherlink.com 1.10,2013-11-21 20:45:00,
2013-11-21 17:01:00,79.0,75.0,29.89,ESE,121,0.0,1.0,88,0.00,,,0.36,weatherlink.com 1.10,2013-11-21 21:01:00,
2013-11-21 17:16:00,79.3,76.0,29.89,SE,129,0.0,1.0,88,0.00,,,0.36,weatherlink.com 1.10,2013-11-21 21:16:00,
2013-11-21 17:31:00,79.4,76.0,29.89,SE,129,0.0,1.0,88,0.00,,,0.36,weatherlink.com 1.10,2013-11-21 21:31:00,
2013-11-21 17:46:00,79.1,75.0,29.89,East,82,0.0,4.0,88,0.00,,,0.36,weatherlink.com 1.10,2013-11-21 21:46:00,
2013-11-21 18:01:00,78.7,75.0,29.89,SE,135,0.0,3.0,88,0.00,,,0.36,weatherlink.com 1.10,2013-11-21 22:01:00,
2013-11-21 18:16:00,78.4,75.0,29.90,East,91,0.0,1.0,88,0.00,,,0.36,weatherlink.com 1.10,2013-11-21 22:16:00,
2013-11-21 18:31:00,78.4,75.0,29.90,East,80,0.0,3.0,88,0.00,,,0.36,weatherlink.com 1.10,2013-11-21 22:31:00,
2013-11-21 18:46:00,77.9,75.0,29.90,East,98,0.0,5.0,89,0.00,,,0.36,weatherlink.com 1.10,2013-11-21 22:46:00,
2013-11-21 19:01:00,77.7,75.0,29.91,ENE,77,1.0,2.0,90,0.00,,,0.36,weatherlink.com 1.10,2013-11-21 23:01:00,
2013-11-21 19:16:00,77.7,75.0,29.91,SSE,148,0.0,2.0,90,0.00,,,0.36,weatherlink.com 1.10,2013-11-21 23:16:00,
2013-11-21 19:31:00,77.5,74.0,29.93,SSE,148,0.0,1.0,90,0.00,,,0.36,weatherlink.com 1.10,2013-11-21 23:31:00,
2013-11-21 19:46:00,77.6,75.0,29.93,SE,143,0.0,1.0,91,0.00,,,0.36,weatherlink.com 1.10,2013-11-21 23:46:00,
2013-11-21 20:01:00,77.4,75.0,29.93,SE,138,0.0,1.0,91,0.01,,,0.37,weatherlink.com 1.10,2013-11-22 00:01:00,
2013-11-21 20:16:00,76.8,74.0,29.93,SE,135,1.0,6.0,91,0.01,,,0.37,weatherlink.com 1.10,2013-11-22 00:16:00,
2013-11-21 20:31:00,76.7,74.0,29.92,SE,124,0.0,2.0,91,0.01,,,0.37,weatherlink.com 1.10,2013-11-22 00:31:00,
2013-11-21 20:46:00,76.6,74.0,29.93,SE,124,0.0,1.0,92,0.01,,,0.37,weatherlink.com 1.10,2013-11-22 00:46:00,
2013-11-21 21:01:00,76.4,74.0,29.93,SE,124,0.0,1.0,93,0.00,,,0.37,weatherlink.com 1.10,2013-11-22 01:01:00,
2013-11-21 21:16:00,76.6,75.0,29.93,SE,124,0.0,0.0,93,0.00,,,0.37,weatherlink.com 1.10,2013-11-22 01:16:00,
2013-11-21 21:31:00,76.5,74.0,29.94,East,101,2.0,2.0,93,0.00,,,0.37,weatherlink.com 1.10,2013-11-22 01:31:00,
2013-11-21 21:46:00,76.2,74.0,29.94,NNE,23,8.0,10.0,93,0.09,,,0.46,weatherlink.com 1.10,2013-11-22 01:46:00,
2013-11-21 22:01:00,75.3,74.0,29.95,ENE,58,1.0,8.0,94,0.34,,,0.71,weatherlink.com 1.10,2013-11-22 02:01:00,
2013-11-21 22:16:00,75.2,74.0,29.94,NNE,27,1.0,6.0,95,0.34,,,0.71,weatherlink.com 1.10,2013-11-22 02:16:00,
2013-11-21 22:31:00,75.3,74.0,29.94,NNE,30,4.0,8.0,94,0.34,,,0.71,weatherlink.com 1.10,2013-11-22 02:31:00,
2013-11-21 22:46:00,75.6,74.0,29.94,ENE,76,2.0,7.0,94,0.25,,,0.71,weatherlink.com 1.10,2013-11-22 02:46:00,
2013-11-21 23:01:00,75.4,73.0,29.94,NE,51,6.0,10.0,93,0.00,,,0.71,weatherlink.com 1.10,2013-11-22 03:01:00,
2013-11-21 23:16:00,75.7,73.0,29.93,SE,124,1.0,7.0,92,0.00,,,0.71,weatherlink.com 1.10,2013-11-22 03:16:00,